User: anonymous   Login
Location: Unspecified
(0.0000°N, 0.0000°E)
Time: 15:48:28
(UTC+00:00)
Language:

N. Korean satellite - Orbit

View from above orbital plane
View from above orbital plane
View from above satellite
View from above satellite

Ground track
Ground track

The orbit data is extracted from the following two-line orbital elements,

1 39026U 12072A   17055.88784722  .00003094  00000-0  12428-3 0  9992
2 39026  97.2309  77.5634 0040171 212.4450 147.4319 15.24951444232875
Epoch (UTC): 24 February 2017 21:18:30
Eccentricity: 0.0040171
inclination: 97.2309°
perigee height: 463 km
apogee height: 518 km
right ascension of ascending node: 77.5634°
argument of perigee: 212.4450°
revolutions per day: 15.24951444
mean anomaly at epoch: 147.4319°
orbit number at epoch: 23287

The dashed part of the orbit path shows where the satellite is in the earth's shadow,  

DLR